Weather History for KVLD - January, 2012

Change the Weather History Date:

Tuesday, January 31, 2012

  Actual Average Record
Temperature  
Mean Temperature 55 °F 51 °F  
Max Temperature 73 °F 63 °F 64 °F (2014)
Min Temperature 37 °F 39 °F 34 °F (2015)
Degree Days  
Heating Degree Days 10 14  
Month to date heating degree days 459  
Since 1 July heating degree days 1069  
Growing Degree Days 5 (Base 50)    
Moisture  
Dew Point 43 °F    
Average Humidity 64    
Maximum Humidity 86    
Minimum Humidity 35    
Precipitation  
Precipitation 0.00 in 0.13 in 0.00 in (2015)
Month to date precipitation 4.57  
Year to date precipitation 4.57  
Sea Level Pressure  
Sea Level Pressure 30.38 in    
Wind  
Wind Speed 2 mph (SE)    
Max Wind Speed 12 mph    
Max Gust Speed 20 mph    
Visibility 10 miles    
Events      
T = Trace of Precipitation, MM = Missing Value Source: NWS Daily Summary

Daily Weather History Graph

Daily Weather History Graph

Search for Another Location

Airport or City:

Trip Planner

Search our weather history database for the weather conditions in past years. The results will help you decide how hot, cold, wet, or windy it might be!

Date:

Astronomy

Jan. 31, 2012 Rise Set
Actual Time 7:25 AM EST 6:07 PM EST
Civil Twilight 7:00 AM EST 6:33 PM EST
Nautical Twilight 6:31 AM EST 7:02 PM EST
Astronomical Twilight 6:02 AM EST 7:30 PM EST
Moon 12:00 PM EST (1/31) 1:10 AM EST (1/31)
Length of Visible Light 11h 32m
Length of Day
10h 42m
First Quarter, 55% of the Moon is Illuminated
Jan 31
First Quarter
Feb 7
Full
Feb 14
Last Quarter
Feb 21
New
Feb 29
First Quarter

Hourly Weather History & Observations

Time (EST) Temp. Dew Point Humidity Pressure Visibility Wind Dir Wind Speed Gust Speed Precip Events Conditions
12:53 AM 39.9 °F 32.0 °F 73% 30.44 in 10.0 mi Calm Calm - N/A   Clear
1:53 AM 39.0 °F 34.0 °F 82% 30.42 in 10.0 mi Calm Calm - N/A   Clear
2:53 AM 37.9 °F 32.0 °F 79% 30.42 in 10.0 mi Calm Calm - N/A   Clear
3:53 AM 37.9 °F 33.1 °F 83% 30.40 in 10.0 mi Calm Calm - N/A   Clear
4:53 AM 37.9 °F 33.1 °F 83% 30.40 in 10.0 mi Calm Calm - N/A   Clear
5:53 AM 39.0 °F 34.0 °F 82% 30.40 in 10.0 mi Calm Calm - N/A   Clear
6:53 AM 37.9 °F 34.0 °F 86% 30.41 in 10.0 mi Calm Calm - N/A   Clear
7:53 AM 39.9 °F 35.1 °F 83% 30.44 in 10.0 mi Calm Calm - N/A   Partly Cloudy
8:53 AM 52.0 °F 39.9 °F 63% 30.44 in 10.0 mi SE 5.8 mph - N/A   Scattered Clouds
9:53 AM 59.0 °F 42.1 °F 53% 30.45 in 10.0 mi SE 5.8 mph - N/A   Scattered Clouds
10:53 AM 66.0 °F 46.0 °F 48% 30.44 in 10.0 mi SE 8.1 mph - N/A   Scattered Clouds
11:53 AM 70.0 °F 48.0 °F 46% 30.42 in 10.0 mi SSE 11.5 mph 19.6 mph N/A   Scattered Clouds
12:53 PM 72.0 °F 46.0 °F 40% 30.40 in 10.0 mi SSE 8.1 mph - N/A   Scattered Clouds
1:53 PM 73.0 °F 46.0 °F 38% 30.36 in 10.0 mi SSE 8.1 mph - N/A   Scattered Clouds
2:53 PM 73.0 °F 44.1 °F 35% 30.33 in 10.0 mi SSE 10.4 mph - N/A   Scattered Clouds
3:53 PM 72.0 °F 45.0 °F 38% 30.33 in 10.0 mi Variable 3.5 mph - N/A   Scattered Clouds
4:53 PM 70.0 °F 46.9 °F 44% 30.32 in 10.0 mi ESE 3.5 mph - N/A   Mostly Cloudy
5:53 PM 66.0 °F 50.0 °F 56% 30.33 in 10.0 mi Calm Calm - N/A   Mostly Cloudy
6:53 PM 60.1 °F 48.9 °F 67% 30.33 in 10.0 mi Calm Calm - N/A   Scattered Clouds
7:53 PM 57.0 °F 48.0 °F 72% 30.34 in 10.0 mi Calm Calm - N/A   Clear
8:53 PM 61.0 °F 50.0 °F 67% 30.34 in 10.0 mi SE 6.9 mph - N/A   Clear
9:53 PM 60.1 °F 51.1 °F 72% 30.35 in 10.0 mi SE 5.8 mph - N/A   Clear
10:53 PM 61.0 °F 51.1 °F 70% 30.34 in 10.0 mi SE 6.9 mph - N/A   Clear
11:53 PM 59.0 °F 51.1 °F 75% 30.34 in 10.0 mi SE 3.5 mph - N/A   Clear